Weather History for KCHS - March, 2013

Change the Weather History Date:

Tuesday, March 5, 2013

  Actual Average Record
Temperature  
Mean Temperature 54 °F 56 °F  
Max Temperature 66 °F 67 °F 85 °F (1997)
Min Temperature 41 °F 44 °F 23 °F (1978)
Degree Days  
Heating Degree Days 11 10  
Month to date heating degree days 99 52  
Since 1 July heating degree days 1484 1688  
Cooling Degree Days 0 1  
Month to date cooling degree days 0 3  
Year to date cooling degree days 21 10  
Growing Degree Days 4 (Base 50)    
Moisture  
Dew Point 42 °F    
Average Humidity 61    
Maximum Humidity 92    
Minimum Humidity 30    
Precipitation  
Precipitation T in 0.11 in 4.48 in (1959)
Month to date precipitation T 0.57  
Year to date precipitation 10.82 7.24  
Snow  
Snow 0.00 in 0.00 in - ()
Month to date snowfall 0.0  
Since 1 July snowfall T 0.5  
Snow Depth 0.00 in    
Sea Level Pressure  
Sea Level Pressure 29.99 in    
Wind  
Wind Speed 10 mph (SSW)    
Max Wind Speed 23 mph    
Max Gust Speed 32 mph    
Visibility 10 miles    
Events Rain    
T = Trace of Precipitation, MM = Missing Value Source: NWS Daily Summary

Daily Weather History Graph

Daily Weather History Graph

Search for Another Location

Airport or City:

Trip Planner

Search our weather history database for the weather conditions in past years. The results will help you decide how hot, cold, wet, or windy it might be!

Date:

Astronomy

Mar. 05, 2013 Rise Set
Actual Time 6:42 AM EST 6:20 PM EST
Civil Twilight 6:18 AM EST 6:45 PM EST
Nautical Twilight 5:49 AM EST 7:14 PM EST
Astronomical Twilight 5:21 AM EST 7:42 PM EST
Moon 1:39 AM EST (3/5) 12:12 PM EST (3/5)
Length of Visible Light 12h 27m
Length of Day
11h 37m
Last Quarter, 41% of the Moon is Illuminated
Mar 5
Last Quarter
Mar 11
New
Mar 19
First Quarter
Mar 27
Full
Apr 3
Last Quarter

Hourly Weather History & Observations

Time (EST) Temp. Windchill Dew Point Humidity Pressure Visibility Wind Dir Wind Speed Gust Speed Precip Events Conditions
12:56 AM 44.1 °F - 37.0 °F 76% 30.11 in 10.0 mi Calm Calm - N/A   Overcast
2:56 AM 43.0 °F - 37.9 °F 82% 30.12 in 10.0 mi Calm Calm - N/A   Mostly Cloudy
3:56 AM 44.1 °F 42.5 °F 39.0 °F 82% 30.12 in 10.0 mi SSW 3.5 mph - N/A   Mostly Cloudy
4:56 AM 45.0 °F - 41.0 °F 86% 30.13 in 10.0 mi Calm Calm - N/A   Scattered Clouds
5:56 AM 42.1 °F 39.2 °F 39.9 °F 92% 30.15 in 10.0 mi SW 4.6 mph - N/A   Scattered Clouds
6:56 AM 45.0 °F 42.6 °F 42.1 °F 90% 30.14 in 10.0 mi SW 4.6 mph - N/A   Mostly Cloudy
7:56 AM 48.0 °F - 43.0 °F 83% 30.14 in 10.0 mi SSW 6.9 mph - N/A   Mostly Cloudy
8:56 AM 54.0 °F - 41.0 °F 62% 30.12 in 10.0 mi South 10.4 mph - N/A   Scattered Clouds
9:56 AM 62.1 °F - 35.1 °F 37% 30.09 in 10.0 mi South 15.0 mph - N/A   Scattered Clouds
10:56 AM 64.9 °F - 32.0 °F 29% 30.08 in 10.0 mi SW 18.4 mph 25.3 mph N/A   Mostly Cloudy
11:56 AM 64.0 °F - 34.0 °F 33% 30.06 in 10.0 mi SW 16.1 mph 23.0 mph N/A   Mostly Cloudy
12:56 PM 63.0 °F - 36.0 °F 37% 30.02 in 10.0 mi SSW 13.8 mph 20.7 mph N/A   Mostly Cloudy
1:56 PM 61.0 °F - 39.0 °F 44% 29.99 in 10.0 mi SSW 10.4 mph - N/A   Mostly Cloudy
2:56 PM 61.0 °F - 41.0 °F 48% 29.96 in 10.0 mi SSW 10.4 mph - N/A   Mostly Cloudy
3:56 PM 59.0 °F - 42.1 °F 53% 29.95 in 10.0 mi SW 9.2 mph - N/A   Overcast
4:56 PM 60.1 °F - 44.1 °F 55% 29.91 in 10.0 mi SSW 9.2 mph - N/A   Mostly Cloudy
5:56 PM 59.0 °F - 44.1 °F 58% 29.88 in 10.0 mi South 11.5 mph - N/A   Scattered Clouds
6:56 PM 60.1 °F - 46.0 °F 60% 29.86 in 10.0 mi SSW 15.0 mph 23.0 mph N/A   Mostly Cloudy
7:56 PM 61.0 °F - 46.0 °F 58% 29.80 in 10.0 mi South 18.4 mph 24.2 mph N/A   Mostly Cloudy
8:56 PM 61.0 °F - 50.0 °F 67% 29.77 in 10.0 mi SSW 18.4 mph 26.5 mph N/A   Overcast
9:56 PM 63.0 °F - 52.0 °F 67% 29.75 in 10.0 mi SSW 20.7 mph 27.6 mph N/A   Overcast
10:56 PM 61.0 °F - 54.0 °F 78% 29.75 in 10.0 mi SW 15.0 mph 24.2 mph 0.00 in Rain Light Rain
11:56 PM 59.0 °F - 51.1 °F 75% 29.74 in 10.0 mi WSW 12.7 mph - 0.00 in   Mostly Cloudy